Keps
Threads by month
- ----- 2024 -----
- October
- September
- August
- July
- June
- May
- April
- March
- February
- January
- ----- 2023 -----
- December
- November
- October
- September
- August
- July
- June
- May
- April
- March
- February
- January
- ----- 2022 -----
- December
- November
- October
- September
- August
- July
- June
- May
- April
- March
- February
- January
- ----- 2021 -----
- December
- November
- October
- September
- August
- July
- June
- May
- April
- March
- February
- January
- ----- 2020 -----
- December
- November
- October
- September
- August
- July
- June
- May
- April
- March
- February
- January
- ----- 2019 -----
- December
- November
- October
- September
- August
- July
- June
- May
- April
- March
- February
- January
- ----- 2018 -----
- December
- November
- October
- September
- August
- July
- June
- May
- April
- March
- February
- January
- ----- 2017 -----
- December
- November
- October
- September
- August
- July
- June
- May
- April
- March
- February
- January
- ----- 2016 -----
- December
- November
- October
- September
- August
- July
- June
- May
- April
- March
- February
- January
- ----- 2015 -----
- December
- November
- October
- September
- August
- July
- June
- May
- April
- March
- February
- January
- ----- 2014 -----
- December
- November
- October
- September
- August
- July
- June
- May
- April
- March
- February
- January
- ----- 2013 -----
- December
- November
- October
- September
- August
- July
- June
- May
- April
- March
- February
- January
- ----- 2012 -----
- December
- November
- October
- September
- August
- July
- June
- May
- April
- March
- February
- January
- ----- 2011 -----
- December
- November
- October
- September
- August
- July
- June
- May
- April
- March
- February
- January
- ----- 2010 -----
- December
- November
- October
- September
- August
- July
- June
- May
- April
- March
- February
- January
- ----- 2009 -----
- December
- November
- October
- September
- August
- July
- June
- May
- April
- March
- February
- January
- ----- 2008 -----
- December
- November
- October
- September
- August
- July
- June
- May
- April
- March
- February
- January
- ----- 2007 -----
- December
- November
- October
- September
- August
- July
- June
- May
- April
- March
- February
- January
- ----- 2006 -----
- December
- November
- October
- September
May 2017
- 1 participants
- 8 discussions
SB KEPS @ AMSAT $ORB17146.N
2Line Orbital Elements 17146.AMSAT
HR AMSAT ORBITAL ELEMENTS FOR AMATEUR SATELLITES IN NASA FORMAT
FROM WA5QGD FORT WORTH,TX May 26, 2017
BID: ORB17146.N
DECODE 2-LINE ELSETS WITH THE FOLLOWING KEY:
1 AAAAAU 00 0 0 BBBBB.BBBBBBBB .CCCCCCCC 00000-0 00000-0 0 DDDZ
2 AAAAA EEE.EEEE FFF.FFFF GGGGGGG HHH.HHHH III.IIII JJ.JJJJJJJJKKKKKZ
KEY: A-CATALOGNUM B-EPOCHTIME C-DECAY D-ELSETNUM E-INCLINATION F-RAAN
G-ECCENTRICITY H-ARGPERIGEE I-MNANOM J-MNMOTION K-ORBITNUM Z-CHECKSUM
TO ALL RADIO AMATEURS BT
AO-07
1 07530U 74089B 17146.54146970 -.00000051 00000-0 -44678-4 0 9999
2 07530 101.6286 115.6539 0012204 006.5207 103.4229 12.53627076946144
UO-11
1 14781U 84021B 17146.57501605 .00000128 00000-0 22022-4 0 9997
2 14781 097.6992 193.0841 0006990 270.5828 089.4585 14.82894705766148
LO-19
1 20442U 90005G 17146.42682074 .00000002 00000-0 16845-4 0 9998
2 20442 098.5748 083.1632 0011118 207.2361 152.8241 14.32859997428500
HUBBLE
1 20580U 90037B 17146.46184240 .00000491 00000-0 19271-4 0 9990
2 20580 028.4687 151.0756 0002501 302.4697 192.1583 15.08768385286912
MET-2/21
1 22782U 93055A 17146.19563434 .00000012 00000-0 -31007-5 0 9997
2 22782 082.5507 041.0406 0023310 130.4233 342.9985 13.83801925198389
AO-27
1 22825U 93061C 17146.50201609 -.00000005 00000-0 15696-4 0 9997
2 22825 098.8105 111.8189 0009161 040.6836 319.5028 14.29996491234039
IO-26
1 22826U 93061D 17146.46809348 -.00000008 00000-0 14439-4 0 9994
2 22826 098.8046 111.8692 0009540 031.6046 328.5707 14.30325106234223
FO-29
1 24278U 96046B 17146.57262042 -.00000033 00000-0 11672-5 0 9994
2 24278 098.5671 032.7032 0351048 033.5577 328.7274 13.53076341025709
NOAA-15
1 25338U 98030A 17146.60080438 .00000070 00000-0 48317-4 0 9993
2 25338 098.7823 157.4682 0009371 269.2733 090.7372 14.25794233989661
GO-32
1 25397U 98043D 17146.40710353 -.00000011 00000-0 13953-4 0 9990
2 25397 098.6087 089.2046 0002398 074.9924 285.1520 14.23622217980473
ISS
1 25544U 98067A 17146.57350904 .00001688 00000-0 32974-4 0 9994
2 25544 051.6413 146.0488 0005140 194.6814 258.0121 15.53931367058393
NO-44
1 26931U 01043C 17146.43302121 -.00000015 00000-0 26019-4 0 9993
2 26931 067.0495 147.3251 0008049 268.7238 091.2941 14.30460968817164
SO-50
1 27607U 02058C 17146.58303822 .00000016 00000-0 22765-4 0 9990
2 27607 064.5547 191.5803 0030234 107.8315 252.6089 14.75324698775795
CO-55
1 27844U 03031E 17146.54468070 .00000056 00000-0 45055-4 0 9999
2 27844 098.6897 155.8662 0010766 054.6712 305.5470 14.22037627721202
CO-57
1 27848U 03031J 17146.53858838 .00000047 00000-0 41307-4 0 9993
2 27848 098.6990 156.1099 0010770 063.1664 297.0614 14.21652217721093
RS-22
1 27939U 03042A 17146.61583512 .00000135 00000-0 32712-4 0 9997
2 27939 097.9361 292.0557 0011673 297.5351 122.7107 14.66563508730012
NOAA-18
1 28654U 05018A 17146.58890302 -.00000008 00000-0 21182-4 0 9990
2 28654 099.1836 168.2743 0015239 129.8809 230.3704 14.12337867619110
CO-58
1 28895U 05043F 17146.43013374 .00000173 00000-0 42187-4 0 9995
2 28895 097.8625 309.7283 0016189 208.0914 151.9417 14.63391933617309
Falconsat-3
1 30776U 07006E 17146.53115618 .00002329 00000-0 74893-4 0 9996
2 30776 035.4354 203.9943 0002371 144.1146 215.9739 15.32146232564935
CO-65
1 32785U 08021C 17146.45332522 .00000294 00000-0 37741-4 0 9992
2 32785 097.5680 171.7173 0011772 236.5960 123.4132 14.87875869491595
AAUSAT2
1 32788U 08021F 17146.59847981 .00000599 00000-0 61484-4 0 9999
2 32788 097.5606 183.3957 0011500 195.1069 164.9810 14.93844842492356
DO-64
1 32789U 08021G 17146.61378138 .00001344 00000-0 99386-4 0 9997
2 32789 097.5612 205.2993 0013362 166.7788 193.3791 15.04802243493524
CO-66
1 32791U 08021J 17146.35432359 .00000508 00000-0 57855-4 0 9993
2 32791 097.5650 175.9197 0012390 220.5474 139.4823 14.90203152491814
RS-30
1 32953U 08025A 17146.47192302 .00000027 00000-0 12558-3 0 9997
2 32953 082.5041 253.1520 0018008 335.4350 024.5870 12.43076689408725
PRISM
1 33493U 09002B 17146.55451840 .00001069 00000-0 10174-3 0 9996
2 33493 098.1721 028.0748 0015993 149.4574 210.7591 14.95639659452544
NOAA-19
1 33591U 09005A 17146.58840878 .00000055 00000-0 54721-4 0 9995
2 33591 099.0908 113.1087 0013605 337.3693 022.6877 14.12182178427345
TISAT-1
1 36799U 10035E 17146.39132633 .00000418 00000-0 49004-4 0 9996
2 36799 098.0588 268.6806 0013322 044.2199 316.0081 14.90370956372331
JUGNU
1 37839U 11058B 17146.54466934 .00000322 00000-0 29686-4 0 9997
2 37839 019.9605 221.7098 0018875 305.3881 200.3606 14.12583561290631
SRMSAT
1 37841U 11058D 17146.49189788 .00000322 00000-0 32019-4 0 9997
2 37841 019.9719 263.2666 0011721 202.7848 231.8851 14.10574950290213
AO-71
1 37854U 11061E 17146.56520792 .00002202 00000-0 12498-3 0 9994
2 37854 101.7055 009.1962 0167743 138.9713 222.4257 15.03998566303232
HRBE
1 37855U 11061F 17146.56019591 .00002348 00000-0 13025-3 0 9993
2 37855 101.7186 007.0064 0180886 145.3986 215.9153 15.02956208303075
ALMASAT-1
1 38078U 12006B 17146.59079580 .00018268 37378-5 20839-3 0 9990
2 38078 069.4400 190.4163 0314353 322.3388 035.6129 15.21266004281502
HORYU-2
1 38340U 12025D 17146.58777058 .00000245 00000-0 44310-4 0 9991
2 38340 098.3763 149.7487 0011788 007.8159 352.3231 14.75326599259692
RS-40
1 38735U 12041C 17146.55098678 .00000008 00000-0 -11141-4 0 9992
2 38735 082.4742 337.6800 0017623 076.3311 283.9730 12.42574369218985
BEESAT-3
1 39134U 13015E 17146.60487597 .00001518 00000-0 83735-4 0 9990
2 39134 064.8665 296.1201 0034706 273.8801 085.8357 15.17729231225820
BEESAT-2
1 39136U 13015G 17146.59126179 .00001105 00000-0 68634-4 0 9999
2 39136 064.8700 306.5532 0031852 285.5737 074.1872 15.15029486225615
ZACUBE-1
1 39417U 13066B 17146.60315942 .00000245 00000-0 37636-4 0 9999
2 39417 097.6314 189.8899 0058769 342.0742 017.8397 14.80695577189583
TRITON-1
1 39427U 13066M 17146.57530196 .00000252 00000-0 48061-4 0 9998
2 39427 097.6384 163.3795 0115758 058.4679 302.7772 14.67445404187681
GOMX-1
1 39430U 13066Q 17146.56716761 .00000256 00000-0 55031-4 0 9994
2 39430 097.6646 147.2530 0153430 111.1067 250.6613 14.58855232186599
LO-74
1 39440U 13066AA 17146.61107914 .00000266 00000-0 44393-4 0 9995
2 39440 097.6304 179.2443 0081041 011.5624 348.7423 14.75437494187717
AO-73
1 39444U 13066AE 17146.59346834 .00000323 00000-0 46720-4 0 9992
2 39444 097.6329 190.9066 0057838 338.9343 020.9488 14.81425226187829
SPROUT
1 39770U 14029E 17146.55203009 .00000927 00000-0 11176-3 0 9992
2 39770 097.8710 246.1357 0010279 046.2211 313.9843 14.86195968162921
DUCHIFAT-1
1 40021U 14033M 17146.47125794 .00000467 00000-0 54501-4 0 9992
2 40021 097.9200 059.6039 0013739 019.2687 340.9047 14.89863097159360
NANOSATCBR1
1 40024U 14033Q 17146.53071912 .00000404 00000-0 48683-4 0 9999
2 40024 097.9159 058.5851 0012994 020.3564 339.8168 14.89192146159322
EO-79
1 40025U 14033R 17146.36423083 .00000385 00000-0 47543-4 0 9993
2 40025 097.9142 057.4926 0013241 023.2741 336.9072 14.88400354158739
DTUSAT-2
1 40030U 14033W 17146.22944300 .00000365 00000-0 45777-4 0 9999
2 40030 097.9109 056.4939 0012575 018.7106 341.4570 14.88024246158673
EO-80
1 40032U 14033Y 17146.47244131 .00000354 00000-0 44644-4 0 9993
2 40032 097.9116 056.7429 0012510 018.4704 341.6963 14.87959164158695
ANTELSAT
1 40034U 14033AA 17146.62432042 .00000283 00000-0 49966-4 0 9995
2 40034 097.8622 031.2211 0059336 003.7566 356.4076 14.73683155157210
VELOX-1
1 40057U 14034E 17146.55334984 .00000476 00000-0 74991-4 0 9999
2 40057 098.1872 246.4454 0012278 123.7336 236.5039 14.77103955156560
